Effective Sunday, March 17, 2024, the National Weather Service National Data Buoy Center will discontinue its Dial-A-Buoy Interactive Voice Response system. For more information, see Service Change Notice 24-06 (PDF).

Station 46075 (LLNR 1197) - SHUMAGIN ISLANDS - 85NM South of Sand Point, AK Image indicating link to RSS feed of recent meteorological observations for station 46075


Conditions at 46075 as of
(2:10 pm AKST)
2310 GMT on 03/01/2024:
     

Click on the graph icon in the table below to see a time series plot of the last five days of that observation.

5-day plot - Wind Speed Wind Speed (WSPD): 9.7 kts
5-day plot - Wind Gust Wind Gust (GST): 11.7 kts
5-day plot - Wave Height Wave Height (WVHT): 3.3 ft
5-day plot - Average Wave Period Average Period (APD): 6.1 sec
5-day plot - Mean Wave Direction Mean Wave Direction (MWD):WSW ( 243 deg true )
5-day plot - Atmospheric Pressure Atmospheric Pressure (PRES):30.03 in
5-day plot - Water Temperature Water Temperature (WTMP): 39.6 °F
5-day plot - Wind Speed at 10 Meters Wind Speed at 10 meters (WSPD10M): 9.7 kts
5-day plot - Wind Speed at 20 Meters Wind Speed at 20 meters (WSPD20M): 9.7 kts
5-day plot -  Wind Speed, Wind Gust and Atmospheric Pressure Combined plot of Wind Speed, Gust, and Air Pressure
Supplemental Measurements
Highest 1-minute Wind Speed
Time (AKST)5-day plot - 1-Minute Wind Speed WSPD 5-day plot - 1-Minute Wind Direction WDIR
2:04 pm 9.7 kts-
Previous observations
TIME
(AKST)
5-day plot - Wind Direction
WDIR
 
5-day plot - Wind Speed
WSPD
kts
5-day plot - Wind Gust
GST
kts
5-day plot - Wave Height
WVHT
ft
5-day plot - Dominant Wave Period
DPD
sec
5-day plot - Average Wave Period
APD
sec
5-day plot - Mean Wave Direction
MWD
 
5-day plot - Atmospheric Pressure
PRES
in
5-day plot - Pressure Tendency
PTDY
in
5-day plot - Air Temperature
ATMP
°F
5-day plot - Water Temperature
WTMP
°F
5-day plot - Dew Point
DEWP
°F
5-day plot - Salinity
SAL
psu
5-day plot - Visibility
VIS
nmi
5-day plot - Tide (above MLLW)
TIDE
ft
2024-03-01 02:00 pm- 9.7 11.7----30.04-0.04- 39.6----
2024-03-01 01:50 pm- 7.8 11.7 3.6 166.0 SW30.04-- 39.6----
2024-03-01 01:40 pm- 7.8 11.7----30.05-- 39.6----
2024-03-01 01:30 pm- 7.8 9.7----30.05-- 39.6----
2024-03-01 01:20 pm- 5.8 9.7 3.9 175.9WSW30.05-- 39.4----
2024-03-01 01:10 pm- 5.8 9.7 3.9-5.9WSW30.06-- 39.4----
2024-03-01 01:00 pm- 3.9 7.8----30.06-0.02- 39.4----
2024-03-01 12:50 pm- 3.9 7.8 3.9 175.9WSW30.06-- 39.4----
2024-03-01 12:40 pm- 3.9 5.8 3.9-5.9WSW30.06-- 39.4----
2024-03-01 12:30 pm- 3.9 7.8----30.06-- 39.4----
2024-03-01 12:20 pm- 3.9 7.8 3.9 55.3NNW30.07-- 39.4----
2024-03-01 12:10 pm- 3.9 7.8 3.9-5.3NNW30.07-- 39.6----
2024-03-01 12:00 pm- 5.8 7.8----30.07+0.00- 39.6----
2024-03-01 11:50 am- 5.8 7.8 4.3 175.3WSW30.07-- 39.6----
2024-03-01 11:40 am- 7.8 9.7----30.07-- 39.6----
2024-03-01 11:30 am- 7.8 11.7----30.07-- 39.6----
2024-03-01 11:20 am- 7.8 11.7 3.9 55.1NNW30.07-- 39.6----
2024-03-01 11:10 am- 7.8 11.7 3.9-5.1NNW30.07-- 39.6----
2024-03-01 11:00 am- 9.7 11.7----30.08-0.01------
2024-03-01 10:50 am- 9.7 13.6 4.9 175.4 NW30.08-- 39.6----
2024-03-01 10:40 am- 9.7 11.7----30.08-- 39.6----
2024-03-01 10:30 am- 9.7 13.6----30.08-- 39.6----
2024-03-01 10:20 am- 9.7 11.7 4.3 65.0 N30.08-- 39.6----
2024-03-01 10:10 am- 9.7 13.6 4.3-5.0 N30.08-- 39.6----
2024-03-01 10:00 am- 9.7 13.6----30.08-0.01- 39.6----
2024-03-01 09:50 am- 9.7 13.6 4.3 65.1NNW30.08-- 39.6----
2024-03-01 09:40 am- 9.7 11.7 4.3-5.1NNW30.08-- 39.6----
2024-03-01 09:30 am- 7.8 11.7----30.08-- 39.6----
2024-03-01 09:20 am- 9.7 11.7 4.9 65.3NNW30.08-- 39.6----
2024-03-01 09:10 am- 7.8 11.7 4.9-5.3NNW30.08-- 39.6----
2024-03-01 09:00 am- 7.8 9.7----30.08-0.01- 39.6----
2024-03-01 08:50 am- 7.8 11.7 4.6 65.2 N30.08-- 39.6----
2024-03-01 08:40 am- 9.7 13.6----30.09-- 39.6----
2024-03-01 08:30 am- 9.7 11.7----30.08-- 39.6----
2024-03-01 08:20 am- 9.7 13.6 4.9 65.2NNW30.09-- 39.6----
2024-03-01 08:10 am- 9.7 13.6 4.9-5.2NNW30.09-- 39.6----
2024-03-01 08:00 am- 9.7 13.6----30.09-0.02- 39.6----
2024-03-01 07:50 am- 9.7 13.6 5.2 65.2NNW30.09-- 39.6----
2024-03-01 07:40 am- 9.7 13.6----30.09-- 39.6----
2024-03-01 07:30 am- 9.7 13.6----30.09-- 39.6----
2024-03-01 07:20 am- 9.7 15.5 5.2 65.4 N30.09-- 39.6----
2024-03-01 07:10 am- 11.7 13.6 5.2-5.4 N30.09-- 39.6----
2024-03-01 07:00 am- 11.7 15.5----30.09-0.03- 39.6----
2024-03-01 06:50 am- 11.7 15.5 5.2 65.2NNW30.09-- 39.6----
2024-03-01 06:40 am- 13.6 17.5 5.2-5.2NNW30.09-- 39.6----
2024-03-01 06:30 am- 13.6 17.5----30.09-- 39.6----
2024-03-01 06:20 am- 13.6 17.5 4.9 65.3NNW30.09-- 39.6----
2024-03-01 06:10 am- 13.6 19.4 4.9-5.3NNW30.09-- 39.6----
2024-03-01 06:00 am- 13.6 17.5----30.09-0.06- 39.4----
2024-03-01 05:50 am- 13.6 17.5 4.9 65.2NNW30.09-- 39.4----
2024-03-01 05:40 am- 13.6 17.5----30.09-- 39.4----
2024-03-01 05:30 am- 13.6 17.5----30.09-- 39.4----
2024-03-01 05:20 am- 13.6 17.5 4.9 65.3NNW30.09-- 39.2----
2024-03-01 05:10 am- 13.6 17.5 4.9-5.3NNW30.10-- 39.2----
2024-03-01 05:00 am- 13.6 17.5----30.11-0.06- 39.2----
2024-03-01 04:50 am- 13.6 17.5 5.2 65.1 N30.10-- 39.2----
2024-03-01 04:40 am- 13.6 17.5----30.11-- 39.2----
2024-03-01 04:30 am- 15.5 17.5----30.11-- 39.4----
2024-03-01 04:20 am- 17.5 21.4 5.6 65.2NNW30.11-- 39.2----
2024-03-01 04:10 am- 15.5 19.4 5.6-5.2NNW30.12-- 39.2----
2024-03-01 04:00 am- 17.5 21.4----30.12-0.06- 39.2----
2024-03-01 03:50 am- 17.5 21.4 5.6 65.1NNW30.13-- 39.2----
2024-03-01 03:40 am- 17.5 21.4----30.14-- 39.2----
2024-03-01 03:30 am- 17.5 21.4----30.14-- 39.2----
2024-03-01 03:20 am- 17.5 21.4 5.2 75.1NNW30.15-- 39.2----
2024-03-01 03:10 am- 15.5 21.4 5.2-5.1NNW30.16-- 39.2----
2024-03-01 03:00 am- 19.4 23.3----30.15-0.04- 39.2----
2024-03-01 02:50 am- 17.5 21.4 5.9 75.3NNW30.15-- 39.2----
2024-03-01 02:40 am- 19.4 23.3 5.9-5.3NNW30.16-- 39.2----
2024-03-01 02:30 am- 17.5 23.3----30.16-- 39.2----
2024-03-01 02:20 am- 15.5 21.4 6.2 75.4NNW30.16-- 39.2----
2024-03-01 02:10 am- 17.5 21.4 6.2-5.4NNW30.16-- 39.2----
2024-03-01 02:00 am- 17.5 21.4----30.16-0.04- 39.2----
2024-03-01 01:50 am- 15.5 21.4 5.9 75.4NNW30.16-- 39.2----
2024-03-01 01:40 am- 15.5 19.4 5.9-5.4NNW30.18-- 39.2----
2024-03-01 01:30 am- 17.5 21.4----30.18-- 39.2----
2024-03-01 01:20 am- 15.5 19.4 6.6 75.4NNW30.19-- 39.2----
2024-03-01 01:10 am- 15.5 21.4 6.6-5.4NNW30.19-- 39.2----
2024-03-01 01:00 am- 15.5 21.4----30.19-0.01- 39.2----
2024-03-01 12:50 am- 15.5 21.4 6.2 75.2WNW30.19-- 39.2----
2024-03-01 12:40 am- 15.5 19.4 6.2-5.2WNW30.20-- 39.2----
2024-03-01 12:30 am- 15.5 21.4----30.20-- 39.2----
2024-03-01 12:20 am- 17.5 21.4 6.9 75.4NNW30.20-- 39.2----
2024-03-01 12:10 am- 17.5 21.4 6.9-5.4NNW30.19-- 39.4----
2024-03-01 12:00 am- 17.5 23.3----30.19-0.01- 39.4----
2024-02-29 11:50 pm- 17.5 21.4 6.6 75.3NNW30.19-- 39.4----
2024-02-29 11:40 pm- 17.5 21.4 6.6-5.3NNW30.19-- 39.2----
2024-02-29 11:30 pm- 17.5 21.4----30.19-- 39.4----
2024-02-29 11:20 pm- 17.5 21.4 7.5 75.5NNW30.19-- 39.4----
2024-02-29 11:10 pm- 17.5 21.4 7.5-5.5NNW30.20-- 39.4----
2024-02-29 11:00 pm- 17.5 21.4----30.20-0.01- 39.4----
2024-02-29 10:50 pm- 19.4 23.3 7.5 75.7NNW30.19-- 39.4----
2024-02-29 10:40 pm- 17.5 23.3 7.5-5.7NNW30.19-- 39.4----
2024-02-29 10:30 pm- 17.5 21.4----30.20-- 39.4----
2024-02-29 10:20 pm- 19.4 23.3 7.5 75.8NNW30.19-- 39.4----
2024-02-29 10:10 pm- 17.5 21.4 7.5-5.8NNW30.19-- 39.4----
2024-02-29 10:00 pm- 17.5 23.3----30.20-0.01- 39.4----
2024-02-29 09:50 pm- 17.5 23.3 7.2 85.5 NW30.19-- 39.4----
2024-02-29 09:40 pm- 17.5 25.3 7.2-5.5 NW30.20-- 39.4----
2024-02-29 09:30 pm- 17.5 21.4----30.20-- 39.4----
2024-02-29 09:20 pm- 17.5 23.3 7.5 75.9NNW30.20-- 39.4----
2024-02-29 09:10 pm- 17.5 23.3 7.5-5.9NNW30.20-- 39.4----
2024-02-29 09:00 pm- 17.5 21.4----30.21-0.01- 39.4----
2024-02-29 08:50 pm- 15.5 21.4 7.9 75.9 N30.21-- 39.4----
2024-02-29 08:40 pm- 17.5 23.3----30.21-- 39.4----
2024-02-29 08:30 pm- 17.5 21.4----30.21-- 39.4----
2024-02-29 08:20 pm- 15.5 21.4 7.5 75.9NNW30.22-- 39.4----
2024-02-29 08:10 pm- 17.5 23.3 7.5-5.9NNW30.22-- 39.4----
2024-02-29 08:00 pm- 17.5 25.3----30.21-0.01- 39.4----
2024-02-29 07:50 pm- 15.5 21.4 8.2 76.0NNW30.21-- 39.4----
2024-02-29 07:40 pm- 15.5 21.4 8.2-6.0NNW30.22-- 39.4----
2024-02-29 07:30 pm- 17.5 21.4----30.20-- 39.4----
2024-02-29 07:20 pm- 17.5 23.3 8.5 86.1NNW30.21-- 39.4----
2024-02-29 07:10 pm- 17.5 23.3 8.5-6.1NNW30.21-- 39.4----
2024-02-29 07:00 pm- 15.5 21.4----30.21-0.01- 39.4----
2024-02-29 06:50 pm- 17.5 21.4 9.2 86.2 N30.20-- 39.4----
2024-02-29 06:40 pm- 17.5 23.3 9.2-6.2 N30.21-- 39.4----
2024-02-29 06:30 pm- 19.4 23.3----30.21-- 39.4----
2024-02-29 06:20 pm- 17.5 25.3 8.2 86.0NNW30.21-- 39.4----
2024-02-29 06:10 pm- 17.5 23.3 8.2-6.0NNW30.21-- 39.4----
2024-02-29 06:00 pm- 17.5 23.3----30.22+0.00- 39.4----
2024-02-29 05:50 pm- 17.5 23.3 9.2 86.3NNW30.21-- 39.4----
2024-02-29 05:40 pm- 17.5 23.3 9.2-6.3NNW30.22-- 39.4----
2024-02-29 05:30 pm- 17.5 25.3----30.21-- 39.4----
2024-02-29 05:20 pm- 17.5 23.3 8.5 86.2NNW30.22-- 39.4----
2024-02-29 05:10 pm- 17.5 21.4 8.5-6.2NNW30.22-- 39.4----
2024-02-29 05:00 pm- 17.5 23.3----30.22-0.01- 39.4----
2024-02-29 04:50 pm- 17.5 23.3 8.5 86.3 NW30.22-- 39.4----
2024-02-29 04:40 pm- 17.5 23.3 8.5-6.3 NW30.22-- 39.4----
2024-02-29 04:30 pm- 17.5 23.3----30.21-- 39.4----
2024-02-29 04:20 pm- 17.5 23.3 8.9 86.3 NW30.22-- 39.4----
2024-02-29 04:10 pm- 17.5 27.2 8.9-6.3 NW30.22-- 39.4----
2024-02-29 04:00 pm- 19.4 25.3----30.22+0.00- 39.4----
2024-02-29 03:50 pm- 19.4 25.3 8.9 86.3 NW30.22-- 39.4----
2024-02-29 03:40 pm- 17.5 23.3----30.22-- 39.4----
2024-02-29 03:30 pm- 17.5 23.3----30.22-- 39.4----
2024-02-29 03:20 pm- 17.5 25.3 9.8 86.4NNW30.22-- 39.4----
2024-02-29 03:10 pm- 17.5 23.3 9.8-6.4NNW30.22-- 39.4----
2024-02-29 03:00 pm- 19.4 25.3----30.22+0.01- 39.4----
2024-02-29 02:50 pm- 17.5 25.3 9.2 76.3 NW30.22-- 39.2----
2024-02-29 02:40 pm- 19.4 27.2----30.22-- 39.4----
2024-02-29 02:00 pm- 17.5 23.3 10.5-6.4 NW30.23+0.02- 39.2----
2024-02-29 01:50 pm- 19.4 25.3 9.2 86.1NNW30.23-- 39.4----

Detailed Wave Summary
for 46075 as of (2:10 pm AKST)
2310 GMT on 03/01/2024:

These wave data are displayed in rounded times.

     

Click on the graph icon in the table below to see a time series plot of the last five days of that observation.

5-day plot - Significant Wave Height Significant Wave Height (WVHT): 3.3 ft
5-day plot - Swell Height Swell Height (SwH): 3.0 ft
5-day plot - Swell Period Swell Period (SwP): 17.4 sec
5-day plot - Swell Direction Swell Direction (SwD):WSW
5-day plot - Wind Wave Height Wind Wave Height (WWH): 1.6 ft
5-day plot - Wind Wave Period Wind Wave Period (WWP): 4.5 sec
5-day plot - Wind Wave Direction Wind Wave Direction (WWD):NNW
5-day plot - Wave Steepness Wave Steepness (STEEPNESS): SWELL
5-day plot - Average Wave Period Average Wave Period (APD): 6.1 sec
Previous observations
TIME
(AKST)
5-day plot - Wave Height
WVHT
ft
5-day plot - Swell Height
SwH
ft
5-day plot - Swell Period
SwP
sec
5-day plot - Swell Direction
SwD
 
5-day plot - Wind Wave Height
WWH
ft
5-day plot - Wind Wave Period
WWP
sec
5-day plot - Wind Wave Direction
WWD
 
5-day plot - Wave Steepness
STEEPNESS
 
5-day plot - Average Wave Period
APD
sec
2024-03-01 01:40 pm 3.6 3.6 16.0 SW 1.3 3.7 NNW SWELL 6.0
2024-03-01 01:10 pm 3.9 3.6 17.4WSW 1.3 3.8 NNW SWELL 5.9
2024-03-01 12:40 pm 3.9 3.6 17.4WSW 1.3 3.7 NNW SWELL 5.9
2024-03-01 12:10 pm 3.9 3.6 5.0NNW 1.3 3.6 NNWVERY_STEEP 5.3
2024-03-01 11:40 am 4.3 3.9 17.4WSW 1.6 3.8 NNW SWELL 5.3
2024-03-01 11:10 am 3.9 3.9 5.0NNW 1.6 3.7 NNWVERY_STEEP 5.1
2024-03-01 10:40 am 4.9 3.9 17.4 NW 2.6 4.5 NNW SWELL 5.4
2024-03-01 10:10 am 4.3 3.6 5.9 N 2.0 4.2 NNW STEEP 5.0
2024-03-01 09:40 am 4.3 3.6 5.6NNW 2.3 4.2 NNWVERY_STEEP 5.1
2024-03-01 09:10 am 4.9 4.3 5.6NNW 2.0 4.3 NNWVERY_STEEP 5.3
2024-03-01 08:40 am 4.6 4.3 5.9 N 1.6 3.3 NW STEEP 5.2
2024-03-01 08:10 am 4.9 4.3 5.6NNW 2.6 4.3 NNWVERY_STEEP 5.2
2024-03-01 07:40 am 5.2 4.3 5.9NNW 3.0 5.0 NNWVERY_STEEP 5.2
2024-03-01 07:10 am 5.2 4.6 6.2 N 3.0 5.3 NNWVERY_STEEP 5.4
2024-03-01 06:40 am 5.2 3.0 7.1 N 4.3 6.2 NNW STEEP 5.2
2024-03-01 06:10 am 4.9 2.3 10.0 E 4.6 6.2 NNW STEEP 5.3
2024-03-01 05:40 am 4.9 2.3 9.1ENE 4.3 6.2 NNW STEEP 5.2
2024-03-01 05:10 am 4.9 2.3 8.3WSW 4.3 6.2 NNW STEEP 5.3
2024-03-01 04:40 am 5.2 2.6 10.0 SW 4.6 5.9 NVERY_STEEP 5.1
2024-03-01 04:10 am 5.6 2.0 10.0WSW 5.2 6.2 NNWVERY_STEEP 5.2
2024-03-01 03:40 am 5.6 1.6 12.9WSW 5.2 6.2 NNWVERY_STEEP 5.1
2024-03-01 03:10 am 5.2 2.6 9.1 W 4.6 6.7 NNW STEEP 5.1
2024-03-01 02:40 am 5.9 1.6 10.0NNE 5.6 6.7 NNW STEEP 5.3
2024-03-01 02:10 am 6.2 2.0 9.1WSW 5.6 6.7 NNW STEEP 5.4
2024-03-01 01:40 am 5.9 2.3 14.8WSW 5.6 6.7 NNW STEEP 5.4
2024-03-01 01:10 am 6.6 2.3 12.9WSW 5.9 6.7 NNW STEEP 5.4
2024-03-01 12:40 am 6.2 2.0 10.0 NE 5.9 6.7 WNW STEEP 5.2
2024-03-01 12:10 am 6.9 2.0 9.1 W 6.6 7.1 NNW STEEP 5.4
2024-02-29 11:40 pm 6.6 2.3 10.0 NE 6.2 7.1 NNW STEEP 5.3
2024-02-29 11:10 pm 7.5 3.0 10.0NNE 6.9 6.7 NNWVERY_STEEP 5.5
2024-02-29 10:40 pm 7.5 1.6 16.0 NW 7.5 7.1 NNW STEEP 5.7
2024-02-29 10:10 pm 7.5 0.0-- 7.5 7.1 NNW STEEP 5.8
2024-02-29 09:40 pm 7.2 2.0 9.1WNW 6.9 7.7 NW STEEP 5.5
2024-02-29 09:10 pm 7.5 0.0-- 7.5 7.1 NNW STEEP 5.9
2024-02-29 08:40 pm 7.9 2.6 12.1SSW 7.5 7.1 N STEEP 5.9
2024-02-29 08:10 pm 7.5 3.0 11.4 N 6.9 7.1 NNW STEEP 5.9
2024-02-29 07:40 pm 8.2 3.9 8.3NNW 7.2 7.1 NNW STEEP 6.0
2024-02-29 07:10 pm 8.5 0.0-- 8.5 7.7 NNW STEEP 6.1
2024-02-29 06:40 pm 9.2 4.6 12.1 NE 7.9 7.7 N STEEP 6.2
2024-02-29 06:10 pm 8.2 0.0-- 8.2 7.7 NNW STEEP 6.0
2024-02-29 05:40 pm 9.2 3.3 13.8ENE 8.5 7.7 NNW STEEP 6.3
2024-02-29 05:10 pm 8.5 2.6 16.0 N 7.9 8.3 NNW STEEP 6.2
2024-02-29 04:40 pm 8.5 0.0-- 8.5 7.7 NW STEEP 6.3
2024-02-29 04:10 pm 8.9 0.0-- 8.9 8.3 NW STEEP 6.3
2024-02-29 03:40 pm 8.9 2.0 10.0 W 8.9 7.7 NW STEEP 6.3
2024-02-29 03:10 pm 9.8 0.0-- 9.8 7.7 NNW STEEP 6.4
2024-02-29 02:40 pm 9.2 0.0-- 9.2 7.1 NWVERY_STEEP 6.3
2024-02-29 02:10 pm 10.5 2.0 14.8SSW 10.2 7.7 NW STEEP 6.4

Plot of wave energy versus frequency (and period)